COSMOS 1235

Satellite information

Favourite Embed

Satellite Type and Status

PAYLOADIN ORBIT

Key statistics

Satellite COSMOS 1235 at a glance.

Uptime

16269

Days in orbit

Revolutions

≈ 12.6

Per day

Orbit

LEO

Low Earth Orbit

Inclination

74.0

Latest

Satellite identification and parameters

Extended collection of information and parameters for COSMOS 1235.

Object identification

Identified? True

Debris? False

Object name: COSMOS 1235

International designator: 1980-102H

Object number (NORAD): 12114

Object ID (CCSDS): 12114

Country: COMMONWEALTH OF INDEPENDENT STATES (CIS)

Current information (Y/N): Y

RCS size: MEDIUM

Orbital parameters

Period: 114.629 minutes

Inclination: 73.9937 deg

SMA: 7816.692 km

Apoapsis: 1464.355 km

Periapsis: 1412.76 km

RAAN: 129.9123 deg

Eccentricy: 0.0033003

Argument of periapsis: 260.164 deg

Mean anomaly: 160.6792 deg

Mean motion: 12.56227307 rev/day

Mean motion (dot): -0.00000036 rev/day2

B* drag term: -0.0001153 1/REarth

Two-line elements (TLE)

Creation date: July 9, 2025, 2:22 a.m.

Reference frame: TEME

Reference center: EARTH

Epoch: July 8, 2025, 8:20 p.m. UTC

TLE line 0: 0 COSMOS 1235

TLE line 1: 1 12114U 80102H 25189.84786351 -.00000036 00000-0 -11530-3 0 9991

TLE line 2: 2 12114 73.9937 129.9123 0033003 260.1640 160.6792 12.56227307 42477

Live tracking on map

Real-time ground track for satellite COSMOS 1235.

In-orbit conjunctions

A list of the most updated potential collisions computed for object COSMOS 1235.

Target Orbit TCA Probability of collision Miss distance Type
DELTA 1 DEB SSO 2025-04-10 02:57:11 0.0008207048 117.0 (m) DEBRIS

Associated space launch

Military communications satellites

COSMOS 1235 was lifted into orbit during the mission ‘Kosmos-3M | Strela-1M 201-208’, on board a Kosmos-3M space rocket.

The launch took place on Dec. 23, 1980, 10:48 p.m. from 132/1 (132L).

For more information about the launch, click the button.

Launch to space Kosmos-3M | Strela-1M 201-208
Kosmos-3M | Strela-1M 201-208

Agency: N/A

Status: Launch Successful

Launch date: Dec. 23, 1980, 10:48 p.m. UTC

Rocket: Kosmos-3M

Launch pad: 132/1 (132L)

Location: Plesetsk Cosmodrome, Russian Federation

...

Latest news about this satellite

There are no fresh news available about this satellite. Check back as we update our databases every day.


Newsletter sign-up

Weekly statistics, charts and insights to help you stay on top of the space industry.